Overview Statistics Trail Chart Weather Telemetry Raw packets
 

This is the latest recevied weather packets stored in our database for station/object OE6JUE. If no packets are shown the sender has not sent any weather packets the latest 10 day(s).

<< 73 74 75 76 77 78 79 >>
Time Temp. Humidity Pressure Rain* Wind** Luminosity Snow
1788164020 28.33° C 45% 1017.6 hPa 0 mm - - -
1788163721 28.33° C 44% 1017.6 hPa 0 mm - - -
1788163420 28.33° C 43% 1017.6 hPa 0 mm - - -
1788163120 28.89° C 44% 1017.5 hPa 0 mm - - -
1788162819 28.33° C 46% 1017.5 hPa 0 mm - - -
1788162520 27.78° C 45% 1017.5 hPa 0 mm - - -
1788162220 27.78° C 46% 1017.6 hPa 0 mm - - -
1788161920 27.22° C 51% 1017.5 hPa 0 mm - - -
1788161620 26.67° C 51% 1017.5 hPa 0 mm - - -
1788161320 27.22° C 51% 1017.4 hPa 0 mm - - -
1788161019 26.67° C 51% 1017.3 hPa 0 mm - - -
1788160720 26.11° C 53% 1017.4 hPa 0 mm - - -
1788160420 25.56° C 54% 1017.3 hPa 0 mm - - -
1788160120 25.56° C 53% 1017.2 hPa 0 mm - - -
1788159823 25.56° C 54% 1017.1 hPa 0 mm - - -
1788159520 25° C 54% 1017.1 hPa 0 mm - - -
1788159220 25° C 53% 1017.1 hPa 0 mm - - -
1788158920 25° C 54% 1017.1 hPa 0 mm - - -
1788158620 25° C 54% 1017.1 hPa 0 mm - - -
1788158319 24.44° C 56% 1017.1 hPa 0 mm - - -
1788158019 24.44° C 54% 1017.3 hPa 0 mm - - -
1788157719 24.44° C 54% 1017.1 hPa 0 mm - - -
1788157419 24.44° C 56% 1017 hPa 0 mm - - -
1788157120 24.44° C 56% 1017.2 hPa 0 mm - - -
1788156820 25° C 61% 1017 hPa 0 mm - - -

* Rain latest hour (hover to see other rain measurements)
** Current wind speed in m/s (hover to see current wind gust speed)